CST,Max TemperatureF,Mean TemperatureF,Min TemperatureF,Max Dew PointF,MeanDew PointF,Min DewpointF,Max Humidity, Mean Humidity, Min Humidity, Max Sea Level PressureIn, Mean Sea Level PressureIn, Min Sea Level PressureIn, Max VisibilityMiles, Mean VisibilityMiles, Min VisibilityMiles, Max Wind SpeedMPH, Mean Wind SpeedMPH, Max Gust SpeedMPH,PrecipitationIn, CloudCover, Events, WindDirDegrees
2012-11-1,66,50,37,39,33,24,79,53,29,30.09,30.01,29.95,10,9,5,7,4,,0.00,0,,247
2012-11-2,71,58,45,44,39,34,82,56,28,30.05,29.99,29.92,10,9,5,10,6,,0.00,0,,68
2012-11-3,80,63,45,59,45,36,76,58,40,30.15,30.00,29.93,10,9,5,23,10,31,0.00,1,Rain,9
2012-11-4,57,47,37,39,36,33,93,72,40,30.23,30.18,30.14,10,8,2,13,8,,0.00,1,,15
2012-11-5,52,46,41,43,39,35,90,74,53,30.14,30.08,30.02,10,10,10,12,5,,0.02,7,Rain,102
2012-11-6,52,48,44,45,43,40,93,83,69,30.10,30.03,29.98,10,8,4,10,6,,0.00,7,,309
2012-11-7,55,46,35,43,37,32,93,75,49,30.20,30.08,29.98,10,10,6,17,7,26,0.00,4,,337
2012-11-8,57,44,30,41,34,28,100,77,44,30.30,30.22,30.15,10,8,1,7,3,,0.00,0,,194
2012-11-9,71,57,43,53,43,36,79,62,42,30.20,30.14,30.08,10,10,10,20,9,26,0.00,0,,180
2012-11-10,73,62,52,55,49,42,83,62,40,30.21,30.14,30.08,10,10,10,18,11,24,0.00,1,,182
2012-11-11,73,63,53,61,54,49,100,77,50,30.10,30.03,29.93,10,8,2,26,16,37,1.25,6,Rain,193
2012-11-12,53,45,35,51,37,26,94,77,44,30.48,30.33,30.12,10,10,4,23,12,30,0.44,3,Rain,311
2012-11-13,51,40,30,33,29,25,92,70,36,30.55,30.49,30.44,10,10,10,10,4,,0.00,0,,24
2012-11-14,48,39,30,34,31,28,92,79,54,30.46,30.41,30.35,10,10,10,14,6,16,0.00,1,,21
2012-11-15,53,42,30,37,33,27,92,78,45,30.41,30.36,30.32,10,10,8,9,4,,0.00,0,,11
2012-11-16,57,42,28,37,33,27,92,76,39,30.46,30.41,30.37,10,10,8,13,6,,0.00,0,,15
2012-11-17,60,44,28,38,33,26,92,72,35,30.50,30.43,30.39,10,10,7,10,5,,0.00,0,,22
2012-11-18,64,48,33,39,34,30,92,59,30,30.43,30.36,30.32,10,8,2,6,3,,0.00,0,,101
2012-11-19,63,51,39,45,40,36,86,65,38,30.33,30.26,30.17,10,8,3,7,2,,0.00,2,,210
2012-11-20,69,60,46,52,47,44,93,68,49,30.17,30.13,30.06,10,8,2,14,5,17,0.00,3,,250
2012-11-21,66,52,39,49,44,37,96,82,48,30.29,30.23,30.17,10,5,1,9,6,,0.00,0,,3
2012-11-22,68,52,37,48,41,36,100,83,43,30.21,30.18,30.09,10,4,0,16,4,23,0.00,1,Fog,183
2012-11-23,59,46,30,54,41,25,94,71,39,30.37,30.24,30.13,10,10,7,20,11,,0.07,3,Rain,322
2012-11-24,43,35,27,25,22,20,85,63,41,30.41,30.31,30.16,10,10,10,10,6,,0.00,0,,349
2012-11-25,55,44,32,32,28,23,75,56,37,30.15,30.06,29.99,10,10,10,22,9,26,0.00,0,,188
2012-11-26,54,48,39,50,42,30,100,82,58,30.26,30.10,30.04,10,7,2,25,8,32,0.01,7,Rain,72
2012-11-27,45,38,30,36,30,26,88,80,60,30.42,30.36,30.27,10,10,8,23,15,28,0.00,1,Snow,13
2012-11-28,50,38,26,34,28,23,96,72,43,30.50,30.43,30.38,10,9,5,5,1,,0.00,0,,165
2012-11-29,57,44,32,31,27,23,88,51,26,30.38,30.31,30.24,10,10,10,13,7,,0.00,0,,179
2012-11-30,63,51,39,48,41,28,79,66,55,30.26,30.22,30.17,10,10,10,20,9,23,0.00,3,,185